Regional Weather Roundup
Issued by NWS Wilmington, NC

Home | Current Version | Previous Version | Text Only | Print | Product List | Glossary On
Versions: 1 2 3 4 5 6 7 8 9 10 11 12 13 14 15 16 17 18 19 20 21 22 23 24 25 26 27 28 29 30 31 32 33 34 35 36 37 38 39 40 41 42 43 44 45 46 47 48 49 50
000
ASUS42 KILM 221613
RWRILM
RWRILM
REGIONAL HOURLY WEATHER ROUNDUP
NATIONAL WEATHER SERVICE WILMINGTON NC
1100 AM EST WED FEB 22 2017

NOTE: "FAIR" INDICATES FEW OR NO CLOUDS BELOW 12,000 FEET WITH NO
SIGNIFICANT WEATHER AND/OR OBSTRUCTIONS TO VISIBILITY.

...............WFO WILMINGTON COUNTY WARNING AREA...............

......COASTAL NC AND SC COUNTIES......

CITY           SKY/WX    TMP DP  RH WIND       PRES   REMARKS
WILMINGTON     MOSUNNY   70  57  63 SE10      30.01S
N MYRTLE BEACH SUNNY     68  55  63 SE12G17   29.98F
MYRTLE BEACH   MOSUNNY   70  55  60 SE16      29.98F

......INLAND NC AND SC COUNTIES.......

CITY           SKY/WX    TMP DP  RH WIND       PRES   REMARKS
LUMBERTON      LGT RAIN  68  54  60 SE9       29.98F
ELIZABETHTOWN  SUNNY     68  56  64 SE7       30.00F
WHITEVILLE     MOSUNNY   70  55  57 SE13      29.98S
FLORENCE       SUNNY     72  55  55 E9        29.97F
DARLINGTON     SUNNY     70  54  56 SE6       29.98F
KINGSTREE      FAIR      70  52  52 SE10      29.96S
HARTSVILLE     FAIR      70  52  52 E8        29.97F
BENNETTSVILLE  NOT AVBL
CONWAY         FAIR      72  50  46 E10       29.98R HAZE
GEORGETOWN     FAIR      70  55  60 SE13      29.98S
MARION         FAIR      70  54  56 SE8       29.98S

....................REST OF NORTH CAROLINA......................

.........EASTERN NC.........

CITY           SKY/WX    TMP DP  RH WIND       PRES   REMARKS
CAPE HATTERAS  SUNNY     70  51  51 E6        30.04F
JACKSONVILLE   MOSUNNY   70  53  54 SE7       30.02F
MOREHEAD CITY  SUNNY     72  53  51 SE7       30.03S
KENANSVILLE    NOT AVBL
NEW BERN       MOSUNNY   69  53  56 SE8       30.03F
ELIZABETH CITY PTSUNNY   66  50  56 S6        30.04F

.........CENTRAL NC.........

CITY           SKY/WX    TMP DP  RH WIND       PRES   REMARKS
RALEIGH DURHAM CLOUDY    66  52  60 SW8       30.03S
ROCKY MOUNT    MOSUNNY   67  53  61 VRB6      30.02F
ROANOKE RAPIDS NOT AVBL
FAYETTEVILLE   MOSUNNY   70  54  56 SE12      29.99F
HOFFMAN        MOSUNNY   70  52  52 S13       29.99F

.........WESTERN NC.........

CITY           SKY/WX    TMP DP  RH WIND       PRES   REMARKS
CHARLOTTE      CLOUDY    59  52  77 N7        30.02R
GREENSBORO     CLOUDY    55  53  93 N6        30.03S
HICKORY        NOT AVBL
BOONE          NOT AVBL
ASHEVILLE      NOT AVBL

.....................REST OF SOUTH CAROLINA.....................

.........EASTERN SC.........

CITY           SKY/WX    TMP DP  RH WIND       PRES   REMARKS
CHARLESTON     MOSUNNY   75  57  53 SE21      29.94F
BEAUFORT MCAS  LGT RAIN  68  61  78 E17G24    29.92S
HILTON HEAD    PTSUNNY   66  63  88 E9        29.92R

.........CENTRAL SC.........

CITY           SKY/WX    TMP DP  RH WIND       PRES   REMARKS
COLUMBIA       CLOUDY    67  56  67 E6        29.96R
ORANGEBURG     CLOUDY    67  57  70 SE7       29.94S
SUMTER SHAW    SUNNY     71  55  57 SE10      29.94S

.........WESTERN SC.........

CITY           SKY/WX    TMP DP  RH WIND       PRES   REMARKS
GREENVILLE     NOT AVBL
ROCK HILL      PTSUNNY   63  54  72 NE3       30.00S
ANDERSON       CLOUDY    58  55  90 NE8       29.98S
CLEMSON        NOT AVBL
GREENWOOD      CLOUDY    63  56  78 N9        29.99S


...................COASTAL AND OFFSHORE REPORTS..................

................LOCAL PIERS AND NC RESERVE................


STATION/POSITION TIME  SKY/WX   TEMP    WIND        PRES    VSBY
                                AIR SEA DIR/SP/G
                 (UTC)          (F)     (DEG/KT/KT) (MB)    (MI)
JOHNY MRCER PIER 1548            60 60   70/  6/  7 1015.0F
NC RESRV MASNBRO 1445            68     150/  3     1015.0
OCEAN CREST PIER NOT AVBL
SPRINGMAID  PIER 1548                               1014.7S


................COASTAL AND OFFSHORE BUOYS................


STATION/POSITION TIME  SKY/WX   TEMP    WIND        PRES    VSBY
                                AIR SEA DIR/SP/G
                 (UTC)          (F)     (DEG/KT/KT) (MB)    (MI)
DIMNDSHOAL 41025 1550            67 74  140/  8/ 12 1017.4F
WVE H/P(F/S)=  3/10 SWL H/P/D(F/S/D)=  3/ 70/10

CAPE LOOKOUT     1500            63     120/  5/  6 1016.6F
ONSLOW BAY 41036 NOT AVBL
ONSLOW BAY 41064 1508            68     150/ 14/ 17 1016.5F
ONSLOW BAY 41159 1543               69                N/A
WVE H/P(F/S)=  4/ 8

MASNBO INL 41110 1559               57                N/A
WVE H/P(F/S)=  3/ 8

WILM HARBR 41108 1547               57                N/A
WVE H/P(F/S)=  3/ 5

27SE WRITB 41037 1508            66 64  130/ 12/ 17 1015.7F
FRYING PAN 41013 1550            69 67  120/ 14/ 17 1015.5F
WVE H/P(F/S)=  4/ 8 SWL H/P/D(F/S/D)=  2/ 80/ 8

SUNST NRSH 41024 1508            60 56  120/ 10/ 12 1015.3F
CAPRS NRSH 41029 1508            63 59  100/ 10/ 14 1014.0F
EDISTO     41004 1550            70 69  100/ 19/ 23 1013.3F
WVE H/P(F/S)=  4/ 5 SWL H/P/D(F/S/D)=  2/110/13



..........OFFSHORE BUOYS BEYOND 100 NM OFFSHORE...........
.....IN A TRIANGLE---HAT TO BERMUDA TO BAHAMAS TO HAT.....


STATION/POSITION TIME  SKY/WX   TEMP    WIND        PRES    VSBY
                                AIR SEA DIR/SP/G
                 (UTC)          (F)     (DEG/KT/KT) (MB)    (MI)
150E HAT   41001 NOT AVBL
W BERMUDA  41048 1550            62 69   40/ 10/ 14 1018.1S
WVE H/P(F/S)=  8/10 SWL H/P/D(F/S/D)=  8/ 20/10

ATLANTIC S 41049 1550            66 72  360/ 16/ 19 1013.8F
WVE H/P(F/S)= 15/11 SWL H/P/D(F/S/D)= 13/350/11

E BAHAMAS  41046 1550            76 78  100/ 14/ 17 1012.5F
WVE H/P(F/S)=  5/ 8 SWL H/P/D(F/S/D)=  3/ 8

NE BAHAMAS 41047 1550            68 74   90/ 14/ 17 1015.1F
WVE H/P(F/S)=  7/ 9 SWL H/P/D(F/S/D)=  7/ 40/ 9

120E CANVRL41010 NOT AVBL

END



USA.gov is the U.S. government's official web portal to all federal, state and local government web resources and services.